Home > Weather > San Pedro Sula > Past weeks

Flag for Honduras Weather for the Past 2 Weeks in San Pedro Sula, Honduras

Now
66 °F

Scattered showers. Mostly cloudy.


Feels Like: 66 °F
Forecast: 66 / 74 °F
Wind: 10 mph from Northeast

Location: La Mesa San Pedro Sula

Current Time: Feb 7, 2016 at 7:10:42 PM

Latest Report: Feb 7, 2016 at 6:00 PM


Visibility: 5 mi

Pressure: 30.15 "Hg

Humidity: 100%

Dew point: 66 °F

Location of San Pedro SulaLocation

Historic Weather in San Pedro Sula — Graph

°F

San Pedro Sula Temperature Yesterday

Maximum temperature yesterday: 79 °F (at 2:00 PM)
Minimum temperature yesterday: 68 °F (at 6:00 AM)
Average temperature yesterday: 73 °F

High & Low Weather Summary for the Past Weeks

 TemperatureHumidityPressure
High97 °F (Feb 3, 3:00 PM)100% (Jan 23, 6:00 PM)30.24 "Hg (Jan 23, 6:00 PM)
Low61 °F (Jan 25, 4:00 AM)36% (Feb 2, 3:00 PM)29.71 "Hg (Feb 2, 4:00 PM)
Average74 °F89%29.99 "Hg
* Reported Jan 23 5:00 PM — Feb 7 5:00 PM, San Pedro Sula, Weather by CustomWeather, © 2016

Note: Actual official high and low records may vary slightly from our data, if they occured in-between our weather recording intervals... More about our weather records

Advertising

San Pedro Sula Weather History for the Previous 24 Hours

 ConditionsComfort  
Time TempWeatherWind HumidityBarometerVisibility
5:00 PM
Sun, Feb 7
68 °FMore clouds than sun.12 mph94%30.12 "HgN/A
4:00 PM68 °FPartly sunny.12 mph94%30.12 "HgN/A
3:00 PM72 °FBroken clouds.12 mph83%30.12 "HgN/A
2:00 PM72 °FBroken clouds.12 mph83%30.12 "HgN/A
1:47 PM72 °FBroken clouds.12 mph83%30.12 "HgN/A
1:00 PM72 °FBroken clouds.12 mph83%30.15 "HgN/A
12:00 PM72 °FPartly sunny.9 mph83%30.18 "HgN/A
11:00 AM70 °FBroken clouds.8 mph88%30.21 "HgN/A
10:00 AM70 °FBroken clouds.12 mph88%30.24 "HgN/A
9:00 AM68 °FBroken clouds.12 mph94%30.21 "HgN/A
8:00 AM68 °FScattered showers. Broken clouds.12 mph100%30.18 "Hg3 mi
7:00 AM68 °FMore clouds than sun.12 mph100%30.15 "HgN/A
6:00 AM68 °FMostly cloudy.12 mph100%30.12 "HgN/A
5:00 AM68 °FMostly cloudy.10 mph100%30.12 "HgN/A
4:00 AM68 °FMostly cloudy.12 mph100%30.09 "HgN/A
3:00 AM68 °FMostly cloudy.8 mph100%30.09 "HgN/A
2:00 AM68 °FLight rain. Mostly cloudy.6 mph100%30.12 "Hg2 mi
1:00 AM70 °FDrizzle. Mostly cloudy.5 mph100%30.12 "Hg4 mi
12:00 AM68 °FPartly cloudy.No wind100%30.15 "HgN/A
11:00 PM
Sat, Feb 6
68 °FPartly cloudy.5 mph100%30.15 "HgN/A
10:00 PM70 °FPartly cloudy.6 mph100%30.15 "HgN/A
9:00 PM70 °FPartly cloudy.7 mph100%30.15 "HgN/A
8:00 PM70 °FPartly cloudy.7 mph100%30.12 "HgN/A
7:00 PM73 °FPartly cloudy.5 mph94%30.09 "HgN/A
Weather by CustomWeather, © 2016

See weather overviewHow to use our weather pages